BEIDOU-2 G5

Last updated on Sat Aug 15 2026 00:02:58 GMT+0000 (Coordinated Universal Time)

1 38091U 12008A 26226.57958278 .00000042 00000+0 00000+0 0 9995 2 38091 3.7152 69.2952 0006326 255.1438 265.8904 1.00269257 52956
UTC large
Height (km)
Speed (km/s)
/
Latitude / Longitude
Inclination (degrees)
Orbital Period (minutes)
Azimuth
Elevation
Range (km)
Doppler Factor

Next 0 passes for location: London (51.5072 / 0.1276)

No passes found over London.
BEIDOU-2 G5